Skip Page Navigation
NASA JPL Caltech
NASA Logo - Jet Propulsion Laboratory + View the NASA Portal
+ Center for Near-Earth Object Studies
JPL Home Earth Solar System Stars & Galaxies Technology
JPL Solar System Dynamics
BODIES ORBITS EPHEMERIDES TOOLS PHYSICAL DATA DISCOVERY FAQ SITE MAP
JPL Small-Body Database Browser
Search: [ help ]  
(2006 DC158)
Classification: Mars-crossing Asteroid          SPK-ID: 3573876
Ephemeris | Orbit Diagram | Orbital Elements | Mission Design | Physical Parameters | Close-Approach Data ]

[ show orbit diagram ]
Orbital Elements at Epoch 2459200.5 (2020-Dec-17.0) TDB
Reference: JPL 12 (heliocentric ecliptic J2000)
 Element Value Uncertainty (1-sigma)   Units 
e .5373348819045011 3.2607e-07  
a 3.056084930374232 1.8209e-07 au
q 1.413943895221469 1.0523e-06 au
i 6.891162871884549 3.2743e-05 deg
node 348.3156213012797 6.9217e-05 deg
peri 136.8912731989274 8.1228e-05 deg
M 268.2172163977273 3.0432e-05 deg
tp 2459698.013969984928
(2022-Apr-28.51396998)
0.00019723 TDB
period 1951.401146980894
5.34
0.0001744
4.775e-07
d
yr
n .1844828268943949 1.6488e-08 deg/d
Q 4.698225965526995 2.7993e-07 au
  Orbit Determination Parameters
   # obs. used (total)      66  
   data-arc span      4059 days (11.11 yr)  
   first obs. used      2006-02-22  
   last obs. used      2017-04-04  
   planetary ephem.      DE441  
   SB-pert. ephem.      SB441-N16  
   condition code      0  
   norm. resid. RMS      .6262  
   source      ORB  
   producer      Otto Matic  
   solution date      2021-Apr-14 23:33:28  

Additional Information
 Earth MOID = .439241 au 
 Jupiter MOID = .503859 au 
 T_jup = 2.986 
[ show covariance matrix ]

Ephemeris | Orbit Diagram | Orbital Elements | Mission Design | Physical Parameters | Close-Approach Data ]

Physical Parameter Table
Parameter Symbol Value Units Sigma Reference Notes
absolute magnitude H 19.1   n/a E2017F30  

[ show close-approach data ]
Ephemeris | Orbit Diagram | Orbital Elements | Mission Design | Physical Parameters | Close-Approach Data ]
ABOUT SSD CREDITS/AWARDS PRIVACY/COPYRIGHT GLOSSARY LINKS
FirstGov 2021-May-13 23:11 UT
(server date/time)  
NASA Home Page
Site Manager:   Ryan S. Park
Webmaster  Alan B. Chamberlin